Showing default

HYPSO-1, 51053

Orbit data source: Space-Track

HYPSO-1, 51053 is a payload satellite owned by NTNU (NO) in SSO that was launched on Thu, 13 Jan 2022 UTC via an FALCON 9 launch vehicle from the Air Force Eastern Test Range (AFETR). Payload-class satellites include a variety of spacecraft equipped with specific instruments for various scientific and technological missions. These include communications satellites like Starlink; space stations such as the ISS; scientific satellites like the Hubble; Earth observation satellites from companies like Planet Labs, Umbra, and HawkEye 360; GPS; miniature CubeSats for education and research; and military/defense satellites.

Loading next visibility...
Identifier
51053, 2022-002BX
Orbit
SSO
Country
Flag of NONO / NOR
Related business
Manufacturer
NanoAvionics
Mission
Operational Amateur Imaging
Bus & Motor
CUBESAT 6U, Unknown motor
Mass
~10 kg wet, ~10 kg dry
Launch date (UTC)
2022-01-13 (4 years ago)
Launch vehicle
FALCON 9
Launch site
Air Force Eastern Test Range (AFETR)
Object type
Payload
Rocket body
Debris
Shape & HBR
Box + 2 Pan, 0.1 m
Radar Cross Section
0.080 m², Medium (>0.1 m² and < 1m²)

Expand to show TLE details & history
Last TLE update: 15 hours ago

TLE from 15 hours ago
0 HYPSO-1
1 51053U 22002BX  25287.94797306  .00029974  00000-0  56999-3 0  9991
2 51053  97.3176 357.6082 0004520 112.6277 247.5452 15.48190288208710
Epoch: 2025-10-14T22:45Z
TLE epoch observation values (Epoch: 2025-10-14T22:45:04.872Z)
Latitude
-0.00002°
Longitude
-7.39118°
Altitude
426.327 km
Speed
7.655 km/s
True Right ascension
23h 50m 25s
True Declination
0° 00' 00"
Sunlit
Object was in full shadow at epoch
Visualization orbit readout
Latitude
Unknown
Longitude
Unknown
Altitude
Unknown
Speed
Unknown
Apparent Right ascension
Unknown
Apparent Declination
Unknown
Sunlit
N/A
Visualization observer readout
Local Sidereal Time
08:05:43
Azimuth
Unknown
Elevation
Unknown
Doppler factor
Unknown
Orbital elements
Apogee altitude
422.017 km
Perigee altitude
415.872 km
Semi-major axis
6,797.082 km
Eccentricity
0.00045
Inclination
97.3176°
RAAN
357.6082°
Arg. of periapsis
112.6277°
True anomaly
247.49734°
Mean anomaly
247.5452°
Eccentric anomaly
247.52127°
Mean motion
3.87311 °/min
Orbital period
92.95 mins
BSTAR
0.00056999
Loading maneuver chart data...
Computing Atmospheric mass density...

Documentation

Showing up to 5 results
|